Погода в Боаке

Филиппины     13°26′52″N   121°50′20″E
темп.,
°C
ветер,
м/с
пор.,
м/с
влажн.,
%
обл.,
%
осадки,
мм/ч
давл.,
гПа
погр.,
м
23 апреля, пт
пт2323:00+28з71080100 0.4 1007652
02:00+28з7979100 0.6 1005677
05:00+28з6878100 0.0 1006790
08:00+28з687761 0.1 1008747
11:00+28з6777100 0.0 1008435
14:00+28юз897562 0.0 1005340
17:00+29зюз7976100 0.0 1005323
20:00+28зсз6977100 0.2 1007510
24 апреля, сб
сб2423:00+28зсз5875100 0.1 1008542
02:00+28зсз567699 0.1 1007542
05:00+27зсз347411 0.0 1008561
08:00+27зсз33765 0.0 1010443
11:00+27зюз227620 0.0 1010247
14:00+28юз66715 0.0 1007288
17:00+28юз78725 0.0 1007371
20:00+29зюз55729 0.0 1009278
25 апреля, вс
вс2523:00+28сз457241 0.0 1010453
02:00+27ссз45775 0.0 1009442
05:00+26ссз44795 0.0 1009455
08:00+26ссз44780 0.0 1011427
11:00+27зсз22711 0.0 1011203
14:00+28сз22641 0.0 1008157
17:00+29сз33661 0.0 1008391
20:00+28св56725 0.5 1010385
26 апреля, пн
пн2623:00+27св66765 0.1 1011485
02:00+27св67795 0.2 1009529
05:00+26св56795 0.1 1010558
08:00+26св447737 0.1 1012566
11:00+27с44735 0.0 1012536
14:00+28св667070 0.3 1009817
17:00+28св8873100 0.1 1009814
20:00+27св6875100 1.0 1012697
27 апреля, вт
вт2723:00+26всв797956 0.3 1012646
02:00+26всв677927 0.3 1011647
05:00+26всв678168 0.1 1011557
08:00+26всв677677 0.6 1013804
11:00+28св4567100 0.2 1013758
14:00+29ссв5563100 0.3 1010706
17:00+28ссв886965 0.0 1010675
20:00+28св9970100 0.0 1012787